This is the latest recevied weather packets stored in our database for station/object KC4LZN. If no packets are shown the sender has not sent any weather packets the latest 1 day(s).
| Time | Temp. | Humidity | Pressure | Rain* | Wind** | Luminosity | Snow |
|---|---|---|---|---|---|---|---|
| 1778026553 | 24.44° C | 57% | 1015.7 hPa | 0 mm | 1.79 m/s, 92° | 0 W/m² | - |
| 1778026250 | 24.44° C | 57% | 1015.9 hPa | 0 mm | 0.89 m/s, 45° | 1 W/m² | - |
| 1778025947 | 24.44° C | 57% | 1015.9 hPa | 0 mm | 1.79 m/s, 81° | 2 W/m² | - |
| 1778025645 | 24.44° C | 57% | 1015.9 hPa | 0 mm | 0 m/s | 4 W/m² | - |
| 1778025343 | 25° C | 56% | 1015.6 hPa | 0 mm | 0.89 m/s, 109° | 7 W/m² | - |
| 1778025039 | 25° C | 56% | 1015.7 hPa | 0 mm | 0.89 m/s, 56° | 12 W/m² | - |
| 1778024736 | 25° C | 55% | 1015.5 hPa | 0 mm | 2.24 m/s, 67° | 18 W/m² | - |
| 1778024433 | 25° C | 55% | 1015.5 hPa | 0 mm | 2.24 m/s, 76° | 22 W/m² | - |
| 1778024130 | 25.56° C | 55% | 1015.6 hPa | 0 mm | 1.79 m/s, 97° | 29 W/m² | - |
| 1778023828 | 25.56° C | 55% | 1015.5 hPa | 0 mm | 1.34 m/s, 102° | 36 W/m² | - |
| 1778023526 | 25.56° C | 54% | 1015.6 hPa | 0 mm | 4.02 m/s, 93° | 44 W/m² | - |
| 1778023223 | 26.11° C | 55% | 1015.4 hPa | 0 mm | 0.45 m/s, 29° | 49 W/m² | - |
| 1778022920 | 26.11° C | 54% | 1015.5 hPa | 0 mm | 1.34 m/s, 70° | 58 W/m² | - |
| 1778022619 | 26.11° C | 54% | 1015.2 hPa | 0 mm | 0.45 m/s, 182° | 58 W/m² | - |
| 1778022315 | 26.67° C | 53% | 1015.4 hPa | 0 mm | 1.79 m/s, 65° | 74 W/m² | - |
| 1778022012 | 26.67° C | 53% | 1015.5 hPa | 0 mm | 4.47 m/s, 62° | 81 W/m² | - |
| 1778021709 | 26.67° C | 53% | 1015.4 hPa | 0 mm | 1.34 m/s, 56° | 93 W/m² | - |
| 1778021405 | 26.67° C | 53% | 1015.4 hPa | 0 mm | 0.89 m/s, 25° | 104 W/m² | - |
| 1778021102 | 26.67° C | 55% | 1015.6 hPa | 0 mm | 0.45 m/s, 71° | 90 W/m² | - |
| 1778020799 | 26.67° C | 54% | 1015.6 hPa | 0 mm | 1.79 m/s, 87° | 104 W/m² | - |
| 1778020496 | 26.67° C | 54% | 1015.5 hPa | 0 mm | 2.68 m/s, 74° | 146 W/m² | - |
| 1778020192 | 26.67° C | 54% | 1015.4 hPa | 0 mm | 0.89 m/s, 70° | 118 W/m² | - |
| 1778019888 | 27.22° C | 53% | 1015.5 hPa | 0 mm | 1.79 m/s, 84° | 143 W/m² | - |
| 1778019584 | 27.22° C | 54% | 1015.7 hPa | 0 mm | 1.34 m/s, 75° | 167 W/m² | - |
| 1778019282 | 27.22° C | 53% | 1015.6 hPa | 0 mm | 1.79 m/s, 114° | 211 W/m² | - |
* Rain latest hour (hover to see other rain measurements)
** Current wind speed in m/s (hover to see current wind gust speed)